Location: Godiavel Galaoual
(15.2485°N, 12.6604°W)
Time: 01:44:31
(UTC+00:00)

Transit 4A - Pass Details

Date: 16 June 2021
Orbit: 872 x 972 km, 66.8° (Epoch: 29 July)

Event Time Altitude Azimuth Distance (km) Brightness Sun altitude
Rises 19:57:43 0° 2° (N) 3,457 11.2 -8.5°
Reaches altitude 10° 20:00:54 10° 19° (NNE) 2,526 10.3 -9.2°
Maximum altitude 20:05:02 20° 65° (ENE) 1,937 9.3 -10.1°
Enters shadow 20:08:25 13° 104° (ESE) 2,367 9.4 -10.8°
Drops below altitude 10° 20:09:12 10° 110° (ESE) 2,559 - -11.0°
Sets 20:12:25 0° 127° (SE) 3,517 - -11.6°
